Location: Carr Mill
(33.2054°N, 85.9439°W)
Time: 00:16:14
(UTC+00:00)

COSMO-SKYMED 1 - Pass Details

Date: 29 October 2020
Orbit: 621 x 623 km, 97.9° (Epoch: 28 November)

Event Time Altitude Azimuth Distance (km) Brightness Sun altitude
Rises 23:33:54 0° 15° (NNE) 2,905 5.7 -8.9°
Reaches altitude 10° 23:36:07 10° 18° (NNE) 1,995 4.9 -9.3°
Maximum altitude 23:40:26 68° 101° (E) 670 2.5 -10.2°
Drops below altitude 10° 23:44:43 10° 185° (S) 1,981 5.3 -11.1°
Sets 23:46:54 0° 187° (S) 2,883 6.2 -11.5°
